Change the Weather History Date:

Tuesday, March 25, 2014

  Actual Average Record
Temperature  
Mean Temperature 49 °F -  
Max Temperature 70 °F 61 °F 75 °F (2004)
Min Temperature 28 °F 31 °F 12 °F (2013)
Degree Days  
Heating Degree Days 16    
Moisture  
Dew Point 10 °F    
Average Humidity 22    
Maximum Humidity 40    
Minimum Humidity 4    
Precipitation  
Precipitation 0.00 in - - ()
Sea Level Pressure  
Sea Level Pressure 29.99 in    
Wind  
Wind Speed 8 mph (SE)    
Max Wind Speed 17 mph    
Max Gust Speed 22 mph    
Visibility 10 miles    
Events      
Averages and records for this station are not official NWS values.
T = Trace of Precipitation, MM = Missing Value Source: NWS Daily Summary

Daily Weather History Graph

Daily Weather History Graph

Search for Another Location

Airport or City:

Trip Planner

Search our weather history database for the weather conditions in past years. The results will help you decide how hot, cold, wet, or windy it might be!

Date:

Astronomy

Mar. 25, 2014 Rise Set
Actual Time 7:08 AM MDT 7:29 PM MDT
Civil Twilight 6:43 AM MDT 7:55 PM MDT
Nautical Twilight 6:12 AM MDT 8:25 PM MDT
Astronomical Twilight 5:41 AM MDT 8:56 PM MDT
Moon 3:25 AM MDT (3/25) 2:10 PM MDT (3/25)
Length of Visible Light 13h 11m
Length of Day
12h 20m
Waning Crescent, 31% of the Moon is Illuminated
Mar 25
Waning Crescent
Mar 30
New
Apr 7
First Quarter
Apr 15
Full
Apr 22
Last Quarter

Hourly Weather History & Observations

Time (MDT) Temp. Windchill Dew Point Humidity Pressure Visibility Wind Dir Wind Speed Gust Speed Precip Events Conditions
12:53 AM 39.0 °F 33.4 °F 3.9 °F 23% 30.13 in 10.0 mi North 8.1 mph - N/A   Clear
1:53 AM 36.0 °F 29.0 °F 6.1 °F 29% 30.12 in 10.0 mi NE 9.2 mph - N/A   Clear
2:53 AM 33.1 °F 27.7 °F 5.0 °F 31% 30.13 in 10.0 mi NNE 5.8 mph - N/A   Clear
3:53 AM 28.9 °F 22.8 °F 6.1 °F 38% 30.13 in 10.0 mi ENE 5.8 mph - N/A   Clear
4:53 AM 28.9 °F 22.8 °F 6.1 °F 38% 30.12 in 10.0 mi ENE 5.8 mph - N/A   Clear
5:53 AM 30.0 °F 21.7 °F 8.1 °F 40% 30.14 in 10.0 mi East 9.2 mph - N/A   Clear
6:53 AM 28.9 °F 20.4 °F 7.0 °F 40% 30.15 in 10.0 mi East 9.2 mph - N/A   Clear
7:53 AM 30.9 °F 23.5 °F 9.0 °F 40% 30.17 in 10.0 mi ESE 8.1 mph - N/A   Clear
8:53 AM 36.0 °F 29.0 °F 9.0 °F 33% 30.17 in 10.0 mi ESE 9.2 mph - N/A   Clear
9:53 AM 43.0 °F 38.2 °F 12.0 °F 28% 30.15 in 10.0 mi East 8.1 mph - N/A   Clear
10:53 AM 53.1 °F - 10.0 °F 18% 30.10 in 10.0 mi East 6.9 mph - N/A   Clear
11:53 AM 57.0 °F - 5.0 °F 12% 30.05 in 10.0 mi SE 6.9 mph - N/A   Clear
12:53 PM 62.1 °F - 5.0 °F 10% 30.01 in 10.0 mi SE 9.2 mph - N/A   Clear
1:53 PM 66.0 °F - 6.1 °F 9% 29.96 in 10.0 mi Variable 6.9 mph - N/A   Clear
2:53 PM 66.9 °F - 3.9 °F 8% 29.91 in 10.0 mi SSW 3.5 mph - N/A   Clear
3:53 PM 68.0 °F - 1.9 °F 7% 29.87 in 10.0 mi Variable 4.6 mph - N/A   Clear
4:53 PM 69.1 °F - 1.0 °F 7% 29.84 in 10.0 mi NW 4.6 mph - N/A   Clear
5:53 PM 66.0 °F - 3.0 °F 8% 29.82 in 10.0 mi SSW 4.6 mph - N/A   Clear
6:53 PM 62.1 °F - 17.1 °F 18% 29.83 in 10.0 mi WSW 16.1 mph - N/A   Scattered Clouds
7:53 PM 59.0 °F - 19.0 °F 21% 29.83 in 10.0 mi SSW 8.1 mph - N/A   Clear
8:53 PM 57.9 °F - 21.0 °F 24% 29.81 in 10.0 mi SSW 16.1 mph 21.9 mph N/A   Overcast
9:53 PM 55.0 °F - 24.1 °F 30% 29.81 in 10.0 mi SSW 17.3 mph - N/A   Overcast
10:53 PM 53.1 °F - 24.1 °F 32% 29.78 in 10.0 mi SSW 11.5 mph - N/A   Overcast
11:53 PM 51.1 °F - 26.1 °F 38% 29.77 in 10.0 mi South 10.4 mph 19.6 mph N/A   Mostly Cloudy